******** Week 343 almanac for PRN-01 ******** ID: 01 Health: 000 Eccentricity: 0.9598731995E-003 Time of Applicability(s): 61440.0000 Orbital Inclination(rad): 0.9586684839 Rate of Right Ascen(r/s): -0.7988904198E-008 SQRT(A) (m 1/2): 5153.599609 Right Ascen at Week(rad): -0.1013466203E+001 Argument of Perigee(rad): -0.099306905 Mean Anom(rad): 0.2843682799E+001 Af0(s): 0.3538131714E-003 Af1(s/s): 0.0000000000E+000 week: 343 ******** Week 343 almanac for PRN-02 ******** ID: 02 Health: 000 Eccentricity: 0.1675128937E-001 Time of Applicability(s): 61440.0000 Orbital Inclination(rad): 0.9642231722 Rate of Right Ascen(r/s): -0.8000333246E-008 SQRT(A) (m 1/2): 5153.593262 Right Ascen at Week(rad): -0.1176622062E+001 Argument of Perigee(rad): -0.907630142 Mean Anom(rad): -0.2080993244E+001 Af0(s): -0.3623962402E-004 Af1(s/s): 0.7275957614E-011 week: 343 ******** Week 343 almanac for PRN-03 ******** ID: 03 Health: 000 Eccentricity: 0.6329536438E-002 Time of Applicability(s): 61440.0000 Orbital Inclination(rad): 0.9921524083 Rate of Right Ascen(r/s): -0.7531742299E-008 SQRT(A) (m 1/2): 5153.649414 Right Ascen at Week(rad): -0.3064516111E-001 Argument of Perigee(rad): 1.230507257 Mean Anom(rad): 0.5255719283E+000 Af0(s): 0.6513595581E-003 Af1(s/s): -0.7275957614E-011 week: 343 ******** Week 343 almanac for PRN-04 ******** ID: 04 Health: 000 Eccentricity: 0.3612041473E-002 Time of Applicability(s): 61440.0000 Orbital Inclination(rad): 0.9690348385 Rate of Right Ascen(r/s): -0.8137481816E-008 SQRT(A) (m 1/2): 5153.707031 Right Ascen at Week(rad): 0.1041292824E+001 Argument of Perigee(rad): -2.966517733 Mean Anom(rad): -0.2581688542E+001 Af0(s): 0.2098083496E-004 Af1(s/s): 0.3637978807E-011 week: 343 ******** Week 343 almanac for PRN-05 ******** ID: 05 Health: 000 Eccentricity: 0.5531787872E-002 Time of Applicability(s): 61440.0000 Orbital Inclination(rad): 0.9788019818 Rate of Right Ascen(r/s): -0.7623174679E-008 SQRT(A) (m 1/2): 5153.597168 Right Ascen at Week(rad): -0.8878063613E-001 Argument of Perigee(rad): 1.441048367 Mean Anom(rad): -0.2098380856E+001 Af0(s): -0.2231597900E-003 Af1(s/s): 0.0000000000E+000 week: 343 ******** Week 343 almanac for PRN-06 ******** ID: 06 Health: 000 Eccentricity: 0.3621101379E-002 Time of Applicability(s): 61440.0000 Orbital Inclination(rad): 0.9876463397 Rate of Right Ascen(r/s): -0.7691748964E-008 SQRT(A) (m 1/2): 5153.632812 Right Ascen at Week(rad): -0.1066330866E+001 Argument of Perigee(rad): -0.703296111 Mean Anom(rad): 0.2007564400E+001 Af0(s): -0.5636215210E-003 Af1(s/s): -0.7275957614E-011 week: 343 ******** Week 343 almanac for PRN-07 ******** ID: 07 Health: 000 Eccentricity: 0.1993989944E-001 Time of Applicability(s): 61440.0000 Orbital Inclination(rad): 0.9505012347 Rate of Right Ascen(r/s): -0.7943188009E-008 SQRT(A) (m 1/2): 5153.617188 Right Ascen at Week(rad): 0.2051298581E+001 Argument of Perigee(rad): -2.019451627 Mean Anom(rad): 0.1011949824E+001 Af0(s): -0.1010894775E-003 Af1(s/s): -0.7275957614E-011 week: 343 ******** Week 343 almanac for PRN-08 ******** ID: 08 Health: 000 Eccentricity: 0.1092386246E-001 Time of Applicability(s): 61440.0000 Orbital Inclination(rad): 0.9452401599 Rate of Right Ascen(r/s): -0.8503211336E-008 SQRT(A) (m 1/2): 5153.575195 Right Ascen at Week(rad): -0.2182424353E+001 Argument of Perigee(rad): 0.471751149 Mean Anom(rad): -0.2401745406E+001 Af0(s): 0.5245208740E-003 Af1(s/s): -0.3637978807E-011 week: 343 ******** Week 343 almanac for PRN-09 ******** ID: 09 Health: 000 Eccentricity: 0.3537654877E-002 Time of Applicability(s): 61440.0000 Orbital Inclination(rad): 0.9631445919 Rate of Right Ascen(r/s): -0.8206056101E-008 SQRT(A) (m 1/2): 5153.554199 Right Ascen at Week(rad): 0.9778929034E+000 Argument of Perigee(rad): 2.041965492 Mean Anom(rad): -0.1855847483E+001 Af0(s): 0.7581710815E-003 Af1(s/s): 0.3637978807E-011 week: 343 ******** Week 343 almanac for PRN-10 ******** ID: 10 Health: 000 Eccentricity: 0.1075839996E-001 Time of Applicability(s): 61440.0000 Orbital Inclination(rad): 0.9917149841 Rate of Right Ascen(r/s): -0.7508884204E-008 SQRT(A) (m 1/2): 5153.609375 Right Ascen at Week(rad): -0.3315098764E-001 Argument of Perigee(rad): -2.304946199 Mean Anom(rad): -0.3952985350E+000 Af0(s): -0.5559921265E-003 Af1(s/s): -0.7275957614E-011 week: 343 ******** Week 343 almanac for PRN-11 ******** ID: 11 Health: 000 Eccentricity: 0.2274990082E-002 Time of Applicability(s): 61440.0000 Orbital Inclination(rad): 0.9644928172 Rate of Right Ascen(r/s): -0.7920329914E-008 SQRT(A) (m 1/2): 5153.698242 Right Ascen at Week(rad): -0.1044895956E+001 Argument of Perigee(rad): -2.308992748 Mean Anom(rad): 0.2994837955E+001 Af0(s): -0.5598068237E-003 Af1(s/s): 0.1455191523E-010 week: 343 ******** Week 343 almanac for PRN-12 ******** ID: 12 Health: 000 Eccentricity: 0.8882522583E-002 Time of Applicability(s): 61440.0000 Orbital Inclination(rad): 0.9600706382 Rate of Right Ascen(r/s): -0.7874613724E-008 SQRT(A) (m 1/2): 5153.564453 Right Ascen at Week(rad): -0.3114904908E+001 Argument of Perigee(rad): 1.522830590 Mean Anom(rad): 0.3579560647E+000 Af0(s): -0.6027221680E-003 Af1(s/s): 0.0000000000E+000 week: 343 ******** Week 343 almanac for PRN-13 ******** ID: 13 Health: 000 Eccentricity: 0.9817123413E-002 Time of Applicability(s): 61440.0000 Orbital Inclination(rad): 0.9747632980 Rate of Right Ascen(r/s): -0.8091765626E-008 SQRT(A) (m 1/2): 5153.615723 Right Ascen at Week(rad): 0.1151409500E+001 Argument of Perigee(rad): 1.007980798 Mean Anom(rad): -0.2697359907E+001 Af0(s): 0.6952285767E-003 Af1(s/s): 0.0000000000E+000 week: 343 ******** Week 343 almanac for PRN-14 ******** ID: 14 Health: 000 Eccentricity: 0.6289005280E-002 Time of Applicability(s): 61440.0000 Orbital Inclination(rad): 0.9434005814 Rate of Right Ascen(r/s): -0.8023191341E-008 SQRT(A) (m 1/2): 5153.591797 Right Ascen at Week(rad): 0.3115587635E+001 Argument of Perigee(rad): -2.765936638 Mean Anom(rad): 0.1811512966E+000 Af0(s): 0.7104873657E-003 Af1(s/s): 0.3637978807E-011 week: 343 ******** Week 343 almanac for PRN-15 ******** ID: 15 Health: 000 Eccentricity: 0.1668357849E-001 Time of Applicability(s): 61440.0000 Orbital Inclination(rad): 0.9409498074 Rate of Right Ascen(r/s): -0.8446066098E-008 SQRT(A) (m 1/2): 5153.581055 Right Ascen at Week(rad): 0.8367662964E+000 Argument of Perigee(rad): 1.480600054 Mean Anom(rad): 0.2859743158E+001 Af0(s): 0.3538131714E-003 Af1(s/s): 0.3637978807E-011 week: 343 ******** Week 343 almanac for PRN-16 ******** ID: 16 Health: 000 Eccentricity: 0.1473808289E-001 Time of Applicability(s): 61440.0000 Orbital Inclination(rad): 0.9592676952 Rate of Right Ascen(r/s): -0.7874613724E-008 SQRT(A) (m 1/2): 5153.545410 Right Ascen at Week(rad): -0.3097747618E+001 Argument of Perigee(rad): 0.904172318 Mean Anom(rad): -0.1440248420E+001 Af0(s): 0.1382827759E-003 Af1(s/s): 0.7275957614E-011 week: 343 ******** Week 343 almanac for PRN-17 ******** ID: 17 Health: 000 Eccentricity: 0.1315879822E-001 Time of Applicability(s): 61440.0000 Orbital Inclination(rad): 0.9609035419 Rate of Right Ascen(r/s): -0.8343204671E-008 SQRT(A) (m 1/2): 5153.724121 Right Ascen at Week(rad): -0.2079517311E+001 Argument of Perigee(rad): -1.171253129 Mean Anom(rad): -0.2503612066E+001 Af0(s): 0.4673004150E-004 Af1(s/s): -0.1455191523E-010 week: 343 ******** Week 343 almanac for PRN-18 ******** ID: 18 Health: 000 Eccentricity: 0.5705356598E-002 Time of Applicability(s): 61440.0000 Orbital Inclination(rad): 0.9725941533 Rate of Right Ascen(r/s): -0.7840326581E-008 SQRT(A) (m 1/2): 5153.619629 Right Ascen at Week(rad): -0.1069672217E+001 Argument of Perigee(rad): -2.870192279 Mean Anom(rad): 0.1776833615E+001 Af0(s): -0.5130767822E-003 Af1(s/s): 0.1091393642E-010 week: 343 ******** Week 343 almanac for PRN-19 ******** ID: 19 Health: 000 Eccentricity: 0.1083183289E-001 Time of Applicability(s): 61440.0000 Orbital Inclination(rad): 0.9600766304 Rate of Right Ascen(r/s): -0.8377491813E-008 SQRT(A) (m 1/2): 5153.625488 Right Ascen at Week(rad): -0.2035520226E+001 Argument of Perigee(rad): 2.890693917 Mean Anom(rad): -0.6280711314E+000 Af0(s): 0.6723403931E-003 Af1(s/s): 0.3637978807E-011 week: 343 ******** Week 343 almanac for PRN-20 ******** ID: 20 Health: 000 Eccentricity: 0.3631591797E-002 Time of Applicability(s): 61440.0000 Orbital Inclination(rad): 0.9606039362 Rate of Right Ascen(r/s): -0.7771752296E-008 SQRT(A) (m 1/2): 5153.567871 Right Ascen at Week(rad): -0.2266565221E+000 Argument of Perigee(rad): -2.162467622 Mean Anom(rad): 0.2063432609E+001 Af0(s): 0.3623962402E-003 Af1(s/s): 0.0000000000E+000 week: 343 ******** Week 343 almanac for PRN-21 ******** ID: 21 Health: 000 Eccentricity: 0.2107620239E-003 Time of Applicability(s): 61440.0000 Orbital Inclination(rad): 0.9615566821 Rate of Right Ascen(r/s): -0.7817468486E-008 SQRT(A) (m 1/2): 5153.651367 Right Ascen at Week(rad): -0.2082146725E-001 Argument of Perigee(rad): -0.388247317 Mean Anom(rad): 0.1767894133E+000 Af0(s): 0.3099441528E-003 Af1(s/s): 0.1455191523E-010 week: 343 ******** Week 343 almanac for PRN-22 ******** ID: 22 Health: 000 Eccentricity: 0.1262426376E-001 Time of Applicability(s): 61440.0000 Orbital Inclination(rad): 0.9586864603 Rate of Right Ascen(r/s): -0.7874613724E-008 SQRT(A) (m 1/2): 5153.594238 Right Ascen at Week(rad): -0.3094430609E+001 Argument of Perigee(rad): -1.019564300 Mean Anom(rad): -0.1877414594E+001 Af0(s): -0.8201599121E-004 Af1(s/s): 0.3637978807E-011 week: 343 ******** Week 343 almanac for PRN-23 ******** ID: 23 Health: 000 Eccentricity: 0.5874633789E-002 Time of Applicability(s): 61440.0000 Orbital Inclination(rad): 0.9867475229 Rate of Right Ascen(r/s): -0.7566029441E-008 SQRT(A) (m 1/2): 5153.645020 Right Ascen at Week(rad): -0.6464627970E-001 Argument of Perigee(rad): -2.800671041 Mean Anom(rad): 0.7414913339E+000 Af0(s): 0.5664825439E-003 Af1(s/s): 0.3637978807E-011 week: 343 ******** Week 343 almanac for PRN-24 ******** ID: 24 Health: 000 Eccentricity: 0.1766014099E-001 Time of Applicability(s): 61440.0000 Orbital Inclination(rad): 0.9343524916 Rate of Right Ascen(r/s): -0.8183198006E-008 SQRT(A) (m 1/2): 5153.602051 Right Ascen at Week(rad): 0.1944937087E+001 Argument of Perigee(rad): 1.112094501 Mean Anom(rad): 0.1994640536E+001 Af0(s): -0.2508163452E-003 Af1(s/s): 0.1455191523E-010 week: 343 ******** Week 343 almanac for PRN-25 ******** ID: 25 Health: 000 Eccentricity: 0.1261854172E-001 Time of Applicability(s): 61440.0000 Orbital Inclination(rad): 0.9483440742 Rate of Right Ascen(r/s): -0.7954617056E-008 SQRT(A) (m 1/2): 5153.730957 Right Ascen at Week(rad): 0.3075848694E+001 Argument of Perigee(rad): 1.136110888 Mean Anom(rad): 0.3037697663E+000 Af0(s): 0.4634857178E-003 Af1(s/s): -0.3637978807E-011 week: 343 ******** Week 343 almanac for PRN-26 ******** ID: 26 Health: 000 Eccentricity: 0.1064586639E-001 Time of Applicability(s): 61440.0000 Orbital Inclination(rad): 0.9290914169 Rate of Right Ascen(r/s): -0.8091765626E-008 SQRT(A) (m 1/2): 5153.606445 Right Ascen at Week(rad): 0.3003627635E+001 Argument of Perigee(rad): 0.670138008 Mean Anom(rad): -0.5596340915E+000 Af0(s): -0.2756118774E-003 Af1(s/s): -0.3637978807E-011 week: 343 ******** Week 343 almanac for PRN-27 ******** ID: 27 Health: 000 Eccentricity: 0.1371192932E-001 Time of Applicability(s): 61440.0000 Orbital Inclination(rad): 0.9543122182 Rate of Right Ascen(r/s): -0.8411778956E-008 SQRT(A) (m 1/2): 5153.598145 Right Ascen at Week(rad): -0.2151417043E+001 Argument of Perigee(rad): 0.855063212 Mean Anom(rad): -0.2324210466E+001 Af0(s): -0.3337860107E-004 Af1(s/s): -0.3637978807E-011 week: 343 ******** Week 343 almanac for PRN-28 ******** ID: 28 Health: 000 Eccentricity: 0.4272460938E-003 Time of Applicability(s): 61440.0000 Orbital Inclination(rad): 0.9614548162 Rate of Right Ascen(r/s): -0.7840326581E-008 SQRT(A) (m 1/2): 5153.662598 Right Ascen at Week(rad): 0.2024173037E+001 Argument of Perigee(rad): 0.554378260 Mean Anom(rad): 0.8611834056E+000 Af0(s): -0.6341934204E-003 Af1(s/s): 0.3637978807E-011 week: 343 ******** Week 343 almanac for PRN-29 ******** ID: 29 Health: 000 Eccentricity: 0.3297805786E-002 Time of Applicability(s): 61440.0000 Orbital Inclination(rad): 0.9635041187 Rate of Right Ascen(r/s): -0.8343204671E-008 SQRT(A) (m 1/2): 5153.514648 Right Ascen at Week(rad): -0.2063122892E+001 Argument of Perigee(rad): 2.787808972 Mean Anom(rad): -0.2499967738E+001 Af0(s): -0.4310607910E-003 Af1(s/s): 0.7275957614E-011 week: 343 ******** Week 343 almanac for PRN-30 ******** ID: 30 Health: 000 Eccentricity: 0.7697582245E-002 Time of Applicability(s): 61440.0000 Orbital Inclination(rad): 0.9357246853 Rate of Right Ascen(r/s): -0.8091765626E-008 SQRT(A) (m 1/2): 5153.540527 Right Ascen at Week(rad): 0.2044084078E+001 Argument of Perigee(rad): -2.355540226 Mean Anom(rad): 0.9047112340E+000 Af0(s): 0.1239776611E-004 Af1(s/s): 0.1091393642E-010 week: 343 ******** Week 343 almanac for PRN-31 ******** ID: 31 Health: 000 Eccentricity: 0.1091051102E-001 Time of Applicability(s): 61440.0000 Orbital Inclination(rad): 0.9543301945 Rate of Right Ascen(r/s): -0.7886042771E-008 SQRT(A) (m 1/2): 5153.688477 Right Ascen at Week(rad): 0.2075007498E+001 Argument of Perigee(rad): 0.902526360 Mean Anom(rad): 0.1377361949E-001 Af0(s): -0.1850128174E-003 Af1(s/s): 0.0000000000E+000 week: 343 ******** Week 343 almanac for PRN-32 ******** ID: 32 Health: 000 Eccentricity: 0.8815288544E-002 Time of Applicability(s): 61440.0000 Orbital Inclination(rad): 0.9662485062 Rate of Right Ascen(r/s): -0.8148910863E-008 SQRT(A) (m 1/2): 5153.618164 Right Ascen at Week(rad): 0.9944730786E+000 Argument of Perigee(rad): -2.057462592 Mean Anom(rad): -0.1673906351E+001 Af0(s): -0.2641677856E-003 Af1(s/s): 0.1455191523E-010 week: 343